www.pogodaiklimat.ru

Погода и климат >> Архив погоды >> Россия >> Воронежская область >> Воронеж


АРХИВ ПОГОДЫ в Воронеже

Время (UTC), дата Ветер
(напр.,м/с)
 
Видим.   Явления Облачность Т
(С)
Тd
(С)
f
(%)
Тe
(С)
Тes
(С)
Комфортность P
(гПа)
Po
(гПа)
Тmin
(С)
Tmax
(С)
R
(мм)
R24
(мм)
S
(см)
03 15.03 ЮВ 3 10 км 3/0
[Ci fib]
-2.9 -6.0 79 -8 -8 по сезону 1019.1 1000.2 -2.9 13
06 15.03 Ю 4 10 км 8/0
[Ac trans Ci fib]
-1.8 -5.9 74 -7 -6 по сезону 1019.0 1000.1 -3.5
09 15.03 ЮВ 5 10 км 10/0
[Ac As Ci fib]
-0.2 -5.0 70 -6 -4 по сезону 1017.9 999.1
12 15.03 ЮВ 5
{10}
2000 м снег 10/10 300 м
[Frnb Ns]
-0.8 -4.3 77 -7 -7 прохладно 1016.4 997.6
15 15.03 ЮВ 4 10 км в посл. час снег 10/10 300 м
[Frnb Ns]
-1.8 -4.4 82 -8 -8 прохладно 1015.3 996.5 +0.5 0.8
18 15.03 ЮВ 4 10 км снежные зёрна 10/10 300 м
[Frnb Ns]
-2.2 -3.8 89 -8 -8 прохладно 1014.8 996.0
21 15.03 ЮВ 2 10 км слаб. снег 10/10 300 м
[Frnb Ns]
-2.1 -3.4 91 -6 -6 по сезону 1013.4 994.6
00 16.03 В 2 4000 м слаб. снег 10/10 200 м
[Frnb Ns]
-1.8 -2.4 96 -6 -6 по сезону 1011.6 992.8
03 16.03 ЮВ 3 4000 м слаб. снег 10/10 200 м
[Frnb Ns]
-1.4 -2.0 96 -7 -7 по сезону 1009.9 991.2 -2.3 2 15
06 16.03 ЮВ 4 2000 м снег 10/10 200 м
[Frnb Ns]
-0.7 -1.3 96 -7 -7 по сезону 1008.8 990.2
09 16.03 ЮВ 5 4000 м слаб. снег 10/10 200 м
[Frnb Ns]
-0.1 -0.7 96 -6 -6 по сезону 1007.8 989.2
12 16.03 ЮВ 4 4000 м сильн. снег 10/10 200 м
[Frnb Ns]
+0.4 -0.7 92 -5 -5 прохладно 1006.9 988.3
15 16.03 ЮВ 3 4000 м дымка {снег} 10/10 200 м
[St]
+0.4 -0.7 92 -4 -4 по сезону 1006.5 987.9 +0.6 6
18 16.03 Ю 2 4000 м дымка {снег} 10/10 200 м
[St]
+0.3 -0.5 94 -3 -3 по сезону 1007.0 988.4
21 16.03 ЮВ 4 4000 м дымка 10/10 200 м
[St]
+0.3 -1.4 88 -5 -5 по сезону 1007.3 988.7
00 17.03 ЮВ 4 4000 м дымка 10/10 200 м
[St]
-0.1 -1.3 92 -6 -6 по сезону 1007.3 988.7
03 17.03 ЮВ 3 2000 м дымка 10/10 200 м
[St]
-0.4 -1.0 96 -5 -5 по сезону 1007.7 989.1 -0.4 19
06 17.03 ЮВ 3 2000 м дымка 10/10 200 м
[St]
-0.3 -0.9 96 -5 -5 по сезону 1009.4 990.8 -0.7
09 17.03 ЮВ 2 4000 м 10/10 200 м
[]
+1.0 -0.7 88 -3 -3 по сезону 1011.1 992.6
12 17.03 ЮВ 3 10 км 9/8 600 м
[Sc Ac trans]
+2.8 -0.5 79 -1 -1 по сезону 996.4 993.6
15 17.03 ЮВ 1 10 км 9/0
[Ac trans]
+3.5 -0.3 76 +2 +2 тепло 1013.9 995.5 +3.8
18 17.03 В 2 10 км 6/0
[Ac trans]
+1.2 -0.2 90 -2 -2 по сезону 1016.5 997.9
21 17.03 ЮВ 4 4000 м дымка 10/10 200 м
[St]
+0.3 -0.3 96 -5 -5 по сезону 1018.4 999.6
00 18.03 ЮВ 2 500 м туман ?/? +0.1 -0.2 98 -4 -4 по сезону 1019.8 1001.0
03 18.03 ЮВ 2 н/о {туман} н/о -0.2 -0.5 98 -4 -4 по сезону 1021.6 1002.7 -0.1 18
06 18.03 В 1 500 м туман ?/? +0.3 0.0 98 -2 -2 по сезону 1023.1 1004.2
09 18.03 ЮВ 2 1000 м дымка {туман} 10/10 200 м
[St]
+0.7 -0.1 94 -3 -3 по сезону 1024.8 1006.1
12 18.03 ЮВ 3 2000 м дымка {туман} 10/10 200 м
[St]
+1.5 +0.1 90 -3 -3 по сезону 1025.1 1006.4
15 18.03 ЮВ 2 500 м туман ?/? +1.2 +0.7 96 -2 -2 по сезону 1025.0 1006.3 +1.6
18 18.03 ЮВ 4 4000 м дымка {туман} 10/10 200 м
[St]
+2.2 +1.7 96 -3 -3 по сезону 1025.6 1006.9
21 18.03 ЮВ 3 200 м туман ?/? +1.2 +0.7 96 -3 -3 по сезону 1026.4 1007.6
00 19.03 ЮВ 3 200 м туман ?/? +0.8 +0.3 96 -4 -4 по сезону 1026.1 1007.4
03 19.03 ЮВ 4 200 м туман ?/? +0.2 -0.1 98 -5 -5 по сезону 1026.3 1007.4 +0.2 17
06 19.03 ЮВ 3 4000 м дымка {туман} 8/5 300 м
[Sc Ac trans Ci fib]
+1.2 +0.7 96 -3 -2 по сезону 1026.7 1007.9
09 19.03 ЮВ 3 10 км 8/0
[Ci fib]
+6.2 +2.3 76 +3 +9 тепло 1026.5 1008.0
12 19.03 ЮВ 3 10 км 8/8 600 м
[Sc]
+7.6 +3.1 73 +5 +6 тепло 1025.7 1007.4
15 19.03 ЮВ 2 10 км 9/9 600 м
[Sc]
+6.6 +3.5 81 +4 +4 тепло 1025.5 1007.2 +8.1
18 19.03 Ю 2 10 км 4/0
[Ci fib]
+4.7 +3.0 89 +2 +2 тепло 1026.0 1007.5
21 19.03 Ю 3 10 км 6/0
[Ci fib]
+2.5 +1.7 94 -2 -2 по сезону 1026.1 1007.5
00 20.03 Ю 2 10 км 8/0
[Ac trans Ci fib]
+2.3 +1.3 93 -1 -1 тепло 1025.7 1007.0
03 20.03 Ю 1 10 км 9/4 1000 м
[Sc Ac trans]
+1.8 +1.0 94 -0 -0 тепло 1025.6 1006.9 +1.6 14
06 20.03 ЮВ 1 10 км 9/0
[Ac As]
+2.7 +1.1 89 +1 +3 тепло 1025.5 1006.9 +1.5
09 20.03 ЮЗ 1 10 км 10/0
[As op]
+5.0 +1.7 79 +4 +6 тепло 1025.5 1007.0
12 20.03 СЗ 1 10 км 10/0
[As op]
+5.4 +2.2 80 +4 +6 тепло 1025.0 1006.5
15 20.03 СЗ 2 10 км слаб. дождь 10/10 1000 м
[Frnb Ns]
+4.8 +2.6 86 +2 +2 по сезону 1024.9 1006.4 +5.8 0.0
18 20.03 СЗ 3 10 км слаб. дождь 10/10 1000 м
[Frnb Ns]
+2.8 +2.0 94 -1 -1 по сезону 1025.8 1007.2
21 20.03 З 1 10 км слаб. дождь 10/10 600 м
[Frnb Ns]
+1.5 +0.7 94 -0 -0 тепло 1025.9 1007.2
00 21.03 СЗ 2 10 км слаб. дождь 10/10 600 м
[Frnb Ns]
+1.4 +0.9 96 -2 -2 по сезону 1024.9 1006.2
03 21.03 З 3 10 км {дождь} 6/0
[Ac trans]
+0.8 +0.3 96 -4 -4 по сезону 1024.0 1005.3 +0.3 2 12
06 21.03 З 4 500 м туман {дождь} ?/? +0.5 -0.1 96 -5 -5 по сезону 1023.6 1004.9 +0.2
09 21.03 З 2 10 км {туман} 9/8 1000 м
[Sc Ac trans]
+5.0 -0.9 66 +3 +4 тепло 1022.4 1003.9
12 21.03 З 4 10 км {туман} 8/6 1000 м
[Cu med, cong Ac trans]
+4.8 -3.2 56 +1 +2 по сезону 1021.2 1002.7
15 21.03 СЗ 4 10 км 9/6 1000 м
[Sc diur, vesp Ac trans]
+3.2 -0.9 74 -1 -1 по сезону 1020.7 1002.2 +5.8
18 21.03 СЗ 2 10 км 6/4 1000 м
[Sc diur, vesp Ac trans]
+1.0 -1.3 85 -2 -2 по сезону 1021.9 1003.2
21 21.03 СЗ 2 10 км {снег} 10/10 600 м
[Sc]
+0.9 -0.8 88 -3 -3 по сезону 1021.3 1002.6
00 22.03 З 2 10 км {снег} 10/0
[As op]
+0.9 -0.5 90 -3 -3 по сезону 1020.9 1002.3

 

Местоположение метеостанции Воронеж (Воронежская область, Россия): широта 51.70 долгота 39.21 высота над уровнем моря 149 м.

В архиве по умолчанию представлена погода в Воронеже за последнюю неделю. Архивные данные за месяц целиком и за предыдущие месяцы, начиная с января 2011 года, Вы можете получить, выбрав интересующий диапазон дат из раскрывающегося списка и нажав кнопку "Ввод!".


*Определитесь, кто Вы:
робот инопланетянин человек

Внимание! Время в таблицах - всемирное. Для получения местного времени необходимо прибавить поправку, которая равна 3 ч.

Смотрите также архив погоды в соседних городах и на ближайших метеорологических станциях:

Погода в Конь-Колодезе (Липецкая область, Россия) (50 км)
Погода в Нижнедевицке (Воронежская область, Россия) (60 км)
Погода в Лисках (Воронежская область, Россия) (80 км)
Погода в Анне (Воронежская область, Россия) (87 км)
Погода в Старом Осколе (Белгородская область, Россия) (102 км)
Погода в Липецке (Липецкая область, Россия) (113 км)
Погода в Ельце (Липецкая область, Россия) (114 км)
Погода в Каменной Степи (Воронежская область, Россия) (126 км)
Погода в Совхозе им. Ленина (Тамбовская область, Россия) (127 км)
Погода в Ливнах (Орловская область, Россия) (137 км)

Пояснения к столбцам:

Ветер - указаны скорость ветра в м/с - средняя за 10 мин, порывы в срок и между сроками (в фигурных скобках) и направление, откуда дует ветер: С - северный, СВ - северо-восточный, В - восточный, ЮВ - юго-восточный, Ю - южный, ЮЗ - юго-западный, З - западный, СЗ - северо-западный.
Видимость - горизонтальная дальность видимости в метрах или километрах. При видимости от 1 до 10 км при отсутствии осадков обычно наблюдается дымка, при ухудшении видимости до 1 км и менее - туман. В сухую погоду видимость может ухудшаться дымом, пылью или мглою.
Явления - указаны атмосферные явления, наблюдавшиеся в срок или в последний час перед сроком; фигурными скобками обозначены явления, наблюдавшиеся между сроками (за 1-3 часа до срока); квадратными скобками обозначены град или гололедные отложения с указанием их диаметра в мм.
Облачность - указаны через наклонную черту общая и нижняя облачность в баллах и высота нижней границы облаков в метрах; квадратными скобками обозначены формы облаков: Ci - перистые, Cs - перисто-слоистые, Cc - перисто-кучевые, Ac - высококучевые, As - высокослоистые, Sc - слоисто-кучевые, Ns - слоисто-дождевые, Cu - кучевые, Cb - кучево-дождевые. Подробнее классификацию облаков см. в Атласе облаков (PDF).
T - Температура воздуха - температура, измеренная на высоте 2 м над землей.
Td - Температура точки росы - температура, при понижении до которой содержащийся в воздухе водяной пар достигнет насыщения.
f - Относительная влажность воздуха - влажноcть воздуха, измеренная на высоте 2 м над землей.
Te - Эффективная температура - температура, которую ощущает одетый по сезону человек в тени. Характеристика душности погоды. При расчете учитывается влияние влажности воздуха и скорости ветра на теплоощущения человека.
Tes - Эффективная температура на солнце - температура, которую ощущает человек, с поправкой на солнечный нагрев. Характеристика знойности погоды. Зависит от высоты солнца над горизонтом, облачности и скорости ветра. Ночью, в пасмурную погоду, а также при ветре 12 м/с и более поправка равна нулю.
P - Атмосферное давление - приведенное к уровню моря атмосферное давление.
Po - Атмосферное давление - измеренное на уровне метеостанции атмосферное давление.
Tmin - Минимальная температура - минимум температуры воздуха на высоте 2 м над землей.
Tmax - Максимальная температура - максимум температуры воздуха на высоте 2 м над землей.
R - Количество осадков - Количество выпавших осадков за период времени, мм. При наведении курсора мыши на число - период времени, за который выпало указанное количество осадков.
R24 - Количество осадков - Количество выпавших осадков за 24 часа, мм.
S - Снежный покров - Высота снежного покрова, см. При наведении курсора мыши на число - состояние снежного покрова и степень покрытия местности в баллах.